COSMOS 2542 (44797 NORAD) Tracking and Keplerian Element Data

This shows tracking and keplerian element data for the satellite.

Feedback or suggestion? Click here.




ElementValue
Catalog44797
NameCOSMOS 2542
Epoch Orbit857
Epoch Day22.67582814
Epoch Year2020
RAAN86.794
Inclination97.6452
Eccentricity0.0388502
Argument of Perigee131.6455
Mean Anonmoly231.8272
Mean Motion14.76230969
Decay Rate2.192E-05
L11 44797U 19079A 20022.67582814 .00002192 00000-0 90882-4 0 9999
L22 44797 97.6452 86.7940 0388502 131.6455 231.8272 14.76230969 8573

Live tracking and technical data element details for COSMOS 2542 (NORAD 44797). COSMOS 2542 can be tracked NOW for your location showing map with azimuth and elevation plus other details from your city location.

Track the satellite on the map from your city or location and see movement details for azimuth, elevation, latitude, longitude, range, height, and movement on the map or in text.







IsCatalogInMostPopularTable: catalog: 44797, numindb: 9
Update: records affected: 1



GetName: 44797 COSMOS 2542

Hit Count: updated at: Fri, 24 Jan 2020 12:18:02 GMT